Вернуться в каталог

USA 367

АктивенВоенныеVLEO
NORAD 59827·PAYLOAD·🇺🇸 United States

Запущен May 22, 2024 с Vandenberg Space Force Base

Loading…

Ближайшие Пролёты (ближайшие 24 часа)

TLE

УстаревшееSource: Mike McCants

Эпоха: Aug 8, 2026, 00:23 UTC

1 59827U 24096P   26220.01662085 0.00000000  00000-0  00000-0 0    05
2 59827  70.0227 181.8948 0002000 221.9149 138.0851 14.96713443    08

Отслеживайте USA 367 в реальном времени с AllMySat

Download on the App Store